Tracking 19795 objects as of 18-Jul-2019
HD Live streaming from Space Station
objects crossing your sky now

METEOR 2-8 DEB

Track METEOR 2-8 DEB now!
10-day predictions


NORAD ID: 36862
Int'l Code: 1982-025AZ
Perigee: 862.9 km
Apogee: 889.4 km
Inclination: 82.5 °
Period: 102.3 minutes
Semi major axis: 7247 km
RCS: 0.0072 m2 (small)
Launch date: March 25, 1982
Source: Commonwealth of Independent States (former USSR) (CIS)
Launch site: PLESETSK MISSILE AND SPACE COMPLEX (PKMTR)

Note: This is SATELLITE DEBRIS
aabbcc
Your satellite tracking list
Your tracking list is empty




NASA's NSSDC Master Catalog

Two Line Element Set (TLE):
1 36862U 82025AZ  19197.27361423 +.00000517 +00000-0 +29912-3 0  9996
2 36862 082.5421 192.1026 0018267 084.7104 275.6153 14.07176940258865
Source of the keplerian elements: AFSPC